Location: Bun Machan
(52.1403°N, 7.3744°W)
Time: 18:09:16
(UTC+00:00)

Meteor 1-27 Rocket - Pass Details

Date: 14 July 2020
Orbit: 830 x 910 km, 81.3° (Epoch: 12 August)

Event Time Altitude Azimuth Distance (km) Brightness Sun altitude
Rises 00:46:47 0° 345° (NNW) 3,422 8.3 -16.2°
Reaches altitude 10° 00:49:13 10° 342° (NNW) 2,492 7.3 -16.2°
Maximum altitude 00:54:48 65° 262° (W) 948 3.9 -16.1°
Enters shadow 00:58:09 25° 188° (S) 1,682 4.6 -16.1°
